Date String (YYYY-MM-DD hh:mm:ss) UTC,Instrument flags,absolute air pressure of the measurement (hPa),sample flow rate (lpm),inlet stack bypass flow (lpm),air temperature of the measurement (°C),ambient temperature measured by the external sensor (°C),aerosol sample conditioner tube jacket temperature (°C),OPC LED temperature (°C),internal box temperature (°C),relative humidity of the measurement (%),span deviation,mass concentration of particles derived from Lorenz-Mie calculation of OPC scattering (μg/m³),mass concentration of particles derived from Lorenz-Mie calculation of OPC scattering (μg/m³),mass concentration of particles derived from Lorenz-Mie calculation of OPC scattering (μg/m³)
DateTimeUTC,F1_M11,P_M11,Q1_M11,Q2_M11,T1_M11,T2_M11,T3_M11,T4_M11,T5_M11,U1_M11,ZSPAN_M11,X2_M11,X0_M11,X1_M11
2023-10-17 02:00:00,SystemResetWarning,0834.5,5.00,000.00,028.2,026.3,000.0,036.8,029.9,14.9,0000.0,0003.56,0013.72,0002.49
2023-10-17 02:01:00,SystemResetWarning,0834.5,5.00,000.00,028.2,026.5,000.0,036.8,030.0,14.8,0000.0,0003.61,0013.64,0002.48
2023-10-17 02:02:00,SystemResetWarning,0834.5,5.00,000.00,028.2,026.6,000.0,036.8,030.0,14.8,0000.0,0003.62,0014.02,0002.48
2023-10-17 02:03:00,SystemResetWarning,0834.5,5.00,000.00,028.3,026.8,000.0,036.8,030.0,14.8,0000.0,0003.64,0014.40,0002.49
2023-10-17 02:04:00,SystemResetWarning,0834.5,5.00,000.00,028.3,026.9,000.0,036.8,030.1,14.8,0000.0,0003.60,0013.37,0002.48
2023-10-17 02:05:00,SystemResetWarning,0834.5,5.00,000.00,028.3,027.0,000.0,036.8,030.1,14.8,0000.0,0003.61,0013.27,0002.49
2023-10-17 02:06:00,SystemResetWarning,0834.5,4.98,000.00,028.4,027.1,000.0,036.8,030.1,14.8,0000.0,0003.65,0013.04,0002.50
2023-10-17 02:07:00,SystemResetWarning,0834.5,5.01,000.00,028.4,027.1,000.0,036.8,030.2,14.7,0000.0,0003.66,0013.31,0002.51
2023-10-17 02:08:00,SystemResetWarning,0834.5,5.01,000.00,028.4,027.2,000.0,036.8,030.2,14.7,0000.0,0003.62,0013.22,0002.48
2023-10-17 02:09:00,SystemResetWarning,0834.5,5.00,000.00,028.4,027.3,000.0,036.8,030.2,14.7,0000.0,0003.60,0012.61,0002.49
2023-10-17 02:10:00,SystemResetWarning,0834.5,5.00,000.00,028.5,027.3,000.0,036.9,030.2,14.6,0000.0,0003.61,0012.44,0002.51
2023-10-17 02:11:00,SystemResetWarning,0834.5,4.99,000.00,028.5,027.4,000.0,036.9,030.2,14.6,0000.0,0003.66,0012.05,0002.53
2023-10-17 02:12:00,SystemResetWarning,0834.4,5.00,000.00,028.5,027.4,000.0,036.9,030.3,14.6,0000.0,0003.63,0011.22,0002.53
2023-10-17 02:13:00,SystemResetWarning,0834.4,5.00,000.00,028.6,027.4,000.0,036.9,030.3,14.5,0000.0,0003.60,0010.51,0002.53
2023-10-17 02:14:00,SystemResetWarning,0834.4,5.00,000.00,028.6,027.5,000.0,036.9,030.3,14.5,0000.0,0003.61,0010.51,0002.54
2023-10-17 02:15:00,SystemResetWarning,0834.4,5.00,000.00,028.6,027.5,000.0,036.9,030.4,14.5,0000.0,0003.64,0010.73,0002.56
2023-10-17 02:16:00,SystemResetWarning,0834.4,5.00,000.00,028.6,027.5,000.0,037.0,030.4,14.5,0000.0,0003.63,0010.58,0002.56
2023-10-17 02:17:00,SystemResetWarning,0834.4,5.00,000.00,028.7,027.4,000.0,037.0,030.4,14.4,0000.0,0003.64,0010.71,0002.56
2023-10-17 02:18:00,SystemResetWarning,0834.4,4.99,000.00,028.7,025.6,000.0,036.9,030.3,14.4,0000.0,0003.64,0010.09,0002.57
2023-10-17 02:19:00,SystemResetWarning,0834.4,5.01,000.00,028.6,024.3,000.0,036.9,030.1,14.5,0000.0,0003.68,0010.62,0002.58
2023-10-17 02:20:00,SystemResetWarning,0834.4,5.01,000.00,028.4,024.2,000.0,036.8,029.9,14.6,0000.0,0003.68,0010.68,0002.60
2023-10-17 02:21:00,SystemResetWarning,0834.4,5.00,000.00,028.3,024.5,000.0,036.8,029.7,14.7,0000.0,0003.66,0011.76,0002.60
2023-10-17 02:22:00,SystemResetWarning,0834.4,5.00,000.00,028.3,024.9,000.0,036.8,029.7,14.8,0000.0,0003.61,0011.69,0002.60
2023-10-17 02:23:00,SystemResetWarning,0834.4,5.01,000.00,028.2,025.3,000.0,036.8,029.8,14.8,0000.0,0003.65,0012.45,0002.63
2023-10-17 02:24:00,SystemResetWarning,0834.4,5.00,000.00,028.2,025.6,000.0,036.8,029.8,14.8,0000.0,0003.69,0012.67,0002.64
2023-10-17 02:25:00,SystemResetWarning,0834.4,4.99,000.00,028.2,025.9,000.0,036.8,029.8,14.8,0000.0,0003.72,0012.51,0002.65
2023-10-17 02:26:00,SystemResetWarning,0834.4,4.99,000.00,028.2,026.2,000.0,036.8,029.9,14.8,0000.0,0003.73,0014.01,0002.66
2023-10-17 02:27:00,SystemResetWarning,0834.3,5.01,000.00,028.2,026.4,000.0,036.8,029.9,14.8,0000.0,0003.74,0014.85,0002.67
2023-10-17 02:28:00,SystemResetWarning,0834.3,5.01,000.00,028.2,026.5,000.0,036.8,029.9,14.8,0000.0,0003.72,0014.60,0002.68
2023-10-17 02:29:00,SystemResetWarning,0834.3,4.99,000.00,028.2,026.7,000.0,036.8,030.0,14.8,0000.0,0003.73,0014.80,0002.69
2023-10-17 02:30:00,SystemResetWarning,0834.3,4.99,000.00,028.3,026.8,000.0,036.8,030.0,14.8,0000.0,0003.76,0014.68,0002.70
2023-10-17 02:31:00,SystemResetWarning,0834.6,5.00,000.00,028.3,026.9,000.0,036.8,030.0,14.7,0000.0,0003.75,0014.52,0002.70
2023-10-17 02:32:00,SystemResetWarning,0834.5,5.01,000.00,028.3,027.0,000.0,036.8,030.1,14.7,0000.0,0003.73,0014.43,0002.69
2023-10-17 02:33:00,SystemResetWarning,0834.3,5.01,000.00,028.3,027.0,000.0,036.8,030.1,14.7,0000.0,0003.73,0014.47,0002.69
2023-10-17 02:34:00,SystemResetWarning,0834.4,5.00,000.00,028.4,027.1,000.0,036.8,030.1,14.7,0000.0,0003.72,0013.95,0002.67
2023-10-17 02:35:00,SystemResetWarning,0834.2,5.00,000.00,028.4,027.2,000.0,036.8,030.1,14.6,0000.0,0003.68,0013.97,0002.66
2023-10-17 02:36:00,SystemResetWarning,0834.6,4.99,000.00,028.4,027.2,000.0,036.8,030.2,14.6,0000.0,0003.69,0013.65,0002.67
2023-10-17 02:37:00,SystemResetWarning,0834.5,5.00,000.00,028.5,027.3,000.0,036.8,030.2,14.6,0000.0,0003.69,0012.17,0002.67
2023-10-17 02:38:00,SystemResetWarning,0834.3,5.00,000.00,028.5,027.3,000.0,036.9,030.2,14.6,0000.0,0003.67,0010.84,0002.66
2023-10-17 02:39:00,SystemResetWarning,0834.3,5.01,000.00,028.5,027.3,000.0,036.9,030.2,14.5,0000.0,0003.68,0010.90,0002.67
2023-10-17 02:40:00,SystemResetWarning,0834.3,5.00,000.00,028.5,027.4,000.0,036.9,030.2,14.5,0000.0,0003.68,0010.68,0002.67
2023-10-17 02:41:00,SystemResetWarning,0834.3,5.00,000.00,028.5,027.4,000.0,036.9,030.3,14.5,0000.0,0003.64,0010.57,0002.68
2023-10-17 02:42:00,SystemResetWarning,0834.3,5.01,000.00,028.6,027.4,000.0,036.9,030.3,14.5,0000.0,0003.65,0010.37,0002.69
2023-10-17 02:43:00,SystemResetWarning,0834.3,5.00,000.00,028.6,027.4,000.0,036.9,030.3,14.5,0000.0,0003.66,0010.30,0002.68
2023-10-17 02:44:00,SystemResetWarning,0834.3,4.98,000.00,028.6,027.5,000.0,036.9,030.3,14.5,0000.0,0003.68,0009.70,0002.68
2023-10-17 02:45:00,SystemResetWarning,0834.3,5.00,000.00,028.6,027.5,000.0,037.0,030.4,14.4,0000.0,0003.66,0009.57,0002.69
2023-10-17 02:46:00,SystemResetWarning,0834.3,5.01,000.00,028.7,027.5,000.0,037.0,030.4,14.4,0000.0,0003.67,0009.03,0002.71
2023-10-17 02:47:00,SystemResetWarning,0834.3,5.01,000.00,028.7,027.5,000.0,037.0,030.4,14.4,0000.0,0003.66,0009.09,0002.73
2023-10-17 02:48:00,SystemResetWarning,0834.4,5.00,000.00,028.7,027.6,000.0,037.0,030.4,14.4,0000.0,0003.63,0009.34,0002.73
2023-10-17 02:49:00,SystemResetWarning,0834.4,4.98,000.00,028.7,027.6,000.0,037.0,030.4,14.3,0000.0,0003.61,0010.05,0002.74
2023-10-17 02:50:00,SystemResetWarning,0834.4,5.01,000.00,028.7,027.6,000.0,037.1,030.4,14.3,0000.0,0003.60,0010.25,0002.75
2023-10-17 02:51:00,SystemResetWarning,0834.4,5.00,000.00,028.8,027.0,000.0,037.1,030.4,14.3,0000.0,0003.61,0010.35,0002.74
2023-10-17 02:52:00,SystemResetWarning,0834.3,4.99,000.00,028.7,025.0,000.0,037.0,030.2,14.3,0000.0,0003.58,0010.39,0002.74
2023-10-17 02:53:00,SystemResetWarning,0834.3,5.00,000.00,028.6,024.2,000.0,036.9,030.1,14.4,0000.0,0003.57,0010.61,0002.73
2023-10-17 02:54:00,SystemResetWarning,0834.4,5.01,000.00,028.4,024.3,000.0,036.9,029.8,14.5,0000.0,0003.56,0010.95,0002.74
2023-10-17 02:55:00,SystemResetWarning,0834.6,5.01,000.00,028.3,024.7,000.0,036.9,029.8,14.6,0000.0,0003.59,0011.88,0002.75
2023-10-17 02:56:00,SystemResetWarning,0834.5,5.00,000.00,028.3,025.1,000.0,036.9,029.8,14.7,0000.0,0003.59,0012.98,0002.74
2023-10-17 02:57:00,SystemResetWarning,0834.6,5.00,000.00,028.3,025.4,000.0,036.9,029.8,14.7,0000.0,0003.60,0014.29,0002.73
2023-10-17 02:58:00,SystemResetWarning,0834.3,4.99,000.00,028.2,025.7,000.0,036.9,029.8,14.7,0000.0,0003.63,0014.54,0002.72
2023-10-17 02:59:00,SystemResetWarning,0834.3,4.99,000.00,028.2,026.0,000.0,036.9,029.9,14.7,0000.0,0003.63,0014.22,0002.73
